N91HK MYAM-KPBI

Flight info

Callsign N91HK
Flight time 0h 29m
Altitude 20000
Route MRRSH BR70V ZFP BR21V PBI
Aircraft CL60/M-SADE3FGHIJ3J4J7P2RWXY/HB1D1

Departure

Time 2026-04-21 23:25
Airport Leonard M. Thompson International Airport (MYAM)

Arrival

Time 2026-04-21 23:54
Airport Palm Beach International Airport (KPBI)
Time Latitude Longitude Altitude Speed Heading
2026-04-21 23:22 26.51332 -77.08401 15 ft 0 kts 86°
2026-04-21 23:23 26.51330 -77.08391 16 ft 3 kts 129°
2026-04-21 23:23 26.51250 -77.08380 16 ft 17 kts 171°
2026-04-21 23:23 26.51149 -77.08369 17 ft 12 kts 227°
2026-04-21 23:24 26.51137 -77.08564 16 ft 35 kts 268°
2026-04-21 23:24 26.51129 -77.08858 12 ft 39 kts 269°
2026-04-21 23:24 26.51121 -77.09184 10 ft 43 kts 269°
2026-04-21 23:24 26.51113 -77.09434 13 ft 20 kts 266°
2026-04-21 23:25 26.51017 -77.09472 12 ft 14 kts 165°
2026-04-21 23:25 26.50993 -77.09341 9 ft 46 kts 88°
2026-04-21 23:25 26.51006 -77.08561 64 ft 145 kts 85°
2026-04-21 23:25 26.51427 -77.07461 913 ft 172 kts 43°
2026-04-21 23:26 26.52637 -77.07012 1965 ft 203 kts 360°
2026-04-21 23:26 26.53872 -77.07877 2800 ft 233 kts 309°
2026-04-21 23:26 26.54370 -77.09725 3795 ft 268 kts 283°
2026-04-21 23:26 26.54680 -77.11847 4864 ft 286 kts 279°
2026-04-21 23:27 26.54702 -77.14020 6578 ft 284 kts 273°
2026-04-21 23:27 26.54675 -77.16145 8256 ft 280 kts 274°
2026-04-21 23:27 26.54651 -77.18304 9738 ft 281 kts 273°
2026-04-21 23:27 26.54631 -77.20486 10798 ft 297 kts 273°
2026-04-21 23:28 26.54618 -77.23008 10931 ft 344 kts 273°
2026-04-21 23:28 26.54597 -77.25801 11495 ft 368 kts 273°
2026-04-21 23:28 26.54575 -77.28713 12393 ft 379 kts 272°
2026-04-21 23:28 26.54552 -77.31704 13350 ft 386 kts 273°
2026-04-21 23:29 26.54526 -77.34664 14326 ft 390 kts 273°
2026-04-21 23:29 26.54498 -77.37762 15332 ft 394 kts 273°
2026-04-21 23:29 26.54468 -77.40812 16311 ft 398 kts 273°
2026-04-21 23:29 26.54436 -77.43943 17237 ft 402 kts 273°
2026-04-21 23:30 26.54402 -77.47089 18125 ft 406 kts 273°
2026-04-21 23:30 26.54366 -77.50262 19051 ft 408 kts 273°
2026-04-21 23:30 26.54330 -77.53444 19798 ft 409 kts 273°
2026-04-21 23:30 26.54293 -77.56606 20140 ft 402 kts 273°
2026-04-21 23:31 26.54252 -77.59698 20229 ft 392 kts 273°
2026-04-21 23:31 26.54209 -77.62725 20220 ft 385 kts 273°
2026-04-21 23:31 26.54166 -77.65714 20228 ft 386 kts 273°
2026-04-21 23:31 26.54126 -77.68817 20221 ft 407 kts 273°
2026-04-21 23:32 26.54089 -77.72065 20228 ft 427 kts 273°
2026-04-21 23:32 26.54049 -77.75436 20221 ft 435 kts 272°
2026-04-21 23:32 26.54005 -77.78842 20227 ft 435 kts 272°
2026-04-21 23:32 26.53961 -77.82182 20232 ft 433 kts 272°
2026-04-21 23:33 26.53915 -77.85563 20219 ft 432 kts 272°
2026-04-21 23:33 26.53901 -77.88969 20226 ft 431 kts 274°
2026-04-21 23:33 26.53977 -77.92322 20229 ft 431 kts 275°
2026-04-21 23:33 26.54073 -77.95681 20229 ft 431 kts 275°
2026-04-21 23:34 26.54168 -77.99085 20226 ft 431 kts 275°
2026-04-21 23:34 26.54262 -78.02469 20230 ft 431 kts 275°
2026-04-21 23:34 26.54353 -78.05813 20219 ft 431 kts 275°
2026-04-21 23:34 26.54443 -78.09186 20229 ft 431 kts 275°
2026-04-21 23:35 26.54536 -78.12575 20236 ft 431 kts 275°
2026-04-21 23:35 26.54629 -78.15966 20234 ft 431 kts 275°
2026-04-21 23:35 26.54720 -78.19338 20228 ft 431 kts 275°
2026-04-21 23:35 26.54816 -78.22705 20236 ft 431 kts 276°
2026-04-21 23:36 26.54915 -78.26078 20249 ft 431 kts 276°
2026-04-21 23:36 26.55010 -78.29443 20248 ft 432 kts 276°
2026-04-21 23:36 26.55103 -78.32816 20238 ft 431 kts 276°
2026-04-21 23:36 26.55194 -78.36186 20237 ft 431 kts 276°
2026-04-21 23:37 26.55285 -78.39524 20242 ft 430 kts 276°
2026-04-21 23:37 26.55374 -78.42875 20263 ft 430 kts 276°
2026-04-21 23:37 26.55462 -78.46242 20260 ft 431 kts 275°
2026-04-21 23:37 26.55547 -78.49595 20260 ft 431 kts 276°
2026-04-21 23:38 26.55621 -78.52969 20257 ft 431 kts 275°
2026-04-21 23:38 26.55703 -78.56324 20262 ft 431 kts 275°
2026-04-21 23:38 26.55784 -78.59681 20249 ft 431 kts 275°
2026-04-21 23:38 26.55868 -78.63062 20254 ft 431 kts 276°
2026-04-21 23:39 26.55949 -78.66387 20255 ft 431 kts 275°
2026-04-21 23:39 26.56142 -78.69748 20240 ft 430 kts 281°
2026-04-21 23:39 26.56788 -78.73011 20217 ft 427 kts 289°
2026-04-21 23:39 26.57737 -78.76174 20224 ft 425 kts 293°
2026-04-21 23:40 26.58783 -78.79216 20243 ft 425 kts 294°
2026-04-21 23:40 26.59700 -78.81873 20257 ft 426 kts 293°
2026-04-21 23:40 26.60846 -78.85226 20255 ft 427 kts 293°
2026-04-21 23:40 26.61896 -78.88326 20252 ft 427 kts 293°
2026-04-21 23:41 26.62960 -78.91483 20263 ft 427 kts 293°
2026-04-21 23:41 26.64006 -78.94606 20264 ft 427 kts 293°
2026-04-21 23:41 26.65061 -78.97771 20240 ft 427 kts 293°
2026-04-21 23:41 26.66101 -79.00907 20263 ft 427 kts 293°
2026-04-21 23:42 26.67138 -79.04043 20244 ft 427 kts 293°
2026-04-21 23:42 26.68165 -79.07163 20249 ft 427 kts 292°
2026-04-21 23:42 26.69194 -79.10295 20234 ft 428 kts 292°
2026-04-21 23:42 26.70234 -79.13454 19894 ft 433 kts 292°
2026-04-21 23:43 26.71278 -79.16640 19358 ft 430 kts 292°
2026-04-21 23:43 26.72309 -79.19800 18799 ft 426 kts 292°
2026-04-21 23:43 26.73335 -79.22957 18231 ft 423 kts 292°
2026-04-21 23:43 26.74346 -79.26071 17669 ft 422 kts 292°
2026-04-21 23:44 26.75364 -79.29208 17070 ft 422 kts 293°
2026-04-21 23:44 26.76376 -79.32328 16277 ft 416 kts 292°
2026-04-21 23:44 26.77368 -79.35404 15763 ft 414 kts 293°
2026-04-21 23:44 26.78348 -79.38435 15209 ft 413 kts 293°
2026-04-21 23:45 26.79331 -79.41480 14656 ft 410 kts 293°
2026-04-21 23:45 26.81268 -79.47494 13562 ft 407 kts 293°
2026-04-21 23:45 26.82234 -79.50500 13020 ft 405 kts 293°
2026-04-21 23:46 26.83198 -79.53499 12476 ft 403 kts 293°
2026-04-21 23:46 26.84153 -79.56473 11932 ft 400 kts 292°
2026-04-21 23:46 26.84893 -79.59409 11310 ft 387 kts 283°
2026-04-21 23:46 26.84925 -79.62399 10593 ft 374 kts 265°
2026-04-21 23:47 26.84438 -79.65215 10001 ft 359 kts 261°
2026-04-21 23:47 26.83926 -79.67905 9420 ft 347 kts 261°
2026-04-21 23:47 26.83428 -79.70509 8827 ft 337 kts 261°
2026-04-21 23:47 26.82938 -79.73063 8238 ft 330 kts 261°
2026-04-21 23:48 26.82458 -79.75554 7624 ft 324 kts 261°
2026-04-21 23:48 26.81989 -79.78005 6910 ft 323 kts 261°
2026-04-21 23:48 26.81517 -79.80468 6144 ft 323 kts 261°
2026-04-21 23:48 26.81047 -79.82923 5373 ft 322 kts 261°
2026-04-21 23:49 26.80580 -79.85356 4635 ft 322 kts 261°
2026-04-21 23:49 26.80108 -79.87811 3870 ft 323 kts 261°
2026-04-21 23:49 26.79636 -79.90259 3189 ft 320 kts 261°
2026-04-21 23:49 26.79167 -79.92677 2718 ft 311 kts 261°
2026-04-21 23:50 26.78710 -79.95036 2258 ft 304 kts 261°
2026-04-21 23:50 26.78266 -79.97324 1854 ft 295 kts 261°
2026-04-21 23:50 26.77835 -79.99524 1720 ft 281 kts 261°
2026-04-21 23:50 26.77430 -80.01597 1592 ft 268 kts 261°
2026-04-21 23:51 26.77037 -80.03598 1452 ft 254 kts 261°
2026-04-21 23:51 26.76666 -80.05463 1390 ft 231 kts 260°
2026-04-21 23:51 26.76325 -80.07097 1449 ft 202 kts 259°
2026-04-21 23:51 26.76034 -80.08545 1458 ft 178 kts 259°
2026-04-21 23:52 26.75750 -80.09851 1296 ft 167 kts 252°
2026-04-21 23:52 26.75220 -80.10965 1029 ft 158 kts 229°
2026-04-21 23:52 26.74467 -80.11745 893 ft 144 kts 209°
2026-04-21 23:52 26.73603 -80.12299 870 ft 142 kts 199°
2026-04-21 23:53 26.72678 -80.12658 809 ft 136 kts 180°
2026-04-21 23:53 26.71771 -80.12591 701 ft 130 kts 162°
2026-04-21 23:53 26.70934 -80.12266 530 ft 121 kts 138°
2026-04-21 23:53 26.70298 -80.11676 370 ft 118 kts 128°
2026-04-21 23:54 26.69738 -80.11030 227 ft 115 kts 127°
2026-04-21 23:54 26.69156 -80.10382 44 ft 116 kts 128°
2026-04-21 23:54 26.68652 -80.09812 22 ft 82 kts 136°
2026-04-21 23:54 26.68388 -80.09523 22 ft 33 kts 133°
2026-04-21 23:55 26.68231 -80.09353 22 ft 31 kts 134°
2026-04-21 23:55 26.68124 -80.09344 21 ft 17 kts 207°
2026-04-21 23:55 26.68009 -80.09299 22 ft 23 kts 122°
2026-04-21 23:55 26.67911 -80.09189 22 ft 16 kts 164°
2026-04-21 23:56 26.67869 -80.09238 21 ft 6 kts 284°
2026-04-21 23:56 26.67871 -80.09244 21 ft 0 kts 303°
2026-04-21 23:59 26.67907 -80.09274 21 ft 11 kts 347°
2026-04-21 23:59 26.67986 -80.09352 22 ft 18 kts 272°
2026-04-21 23:59 26.67989 -80.09496 21 ft 15 kts 278°
2026-04-22 00:00 26.67958 -80.09544 20 ft 5 kts 159°
2026-04-22 00:00 26.67944 -80.09520 20 ft 0 kts 97°